Погода в Рябцеве

Россия / Калужская область     54°51′14″N   36°11′51″E
темп.,
°C
ветер,
м/с
пор.,
м/с
влажн.,
%
обл.,
%
осадки,
мм/ч
давл.,
гПа
погр.,
м
4 марта, чт
чт400:00−1з6139199 0.1 1011673
03:000зюз71394100 0.1 1008626
06:00−2зюз6149093 0.0 1006508
09:00−2зюз6119197 0.0 1004649
12:00−1зюз61191100 0.1 1002556
15:000зюз5998100 0.4 1001657
18:000з5998100 0.8 1001541
21:00−3с2293100 2.1 100249
5 марта, пт
пт500:00−5сз2393100 0.0 100468
03:00−8сз239356 0.0 100631
06:00−9зсз23940 0.0 100725
09:00−7зсз35947 0.0 1009198
12:00−3сз358479 0.0 1010668
15:00−2зсз347683 0.1 1011977
18:00−6зсз23823 0.0 101222
21:00−8ссз12851 0.0 101421
6 марта, сб
сб600:00−9ююз118451 0.0 101521
03:00−8ю128871 0.0 101522
06:00−8ю239484 0.0 101546
09:00−7ю129491 0.4 1016159
12:00−5с2290100 0.8 1017404
15:00−4с4683100 1.0 1017757
18:00−7сз378896 0.2 1017202
21:00−10зюз348960 0.2 101873
7 марта, вс
вс700:00−10юз5108928 0.0 1015231
03:00−7юз7158659 0.0 1012692
06:00−6юз81684100 0.0 1007927
09:00−5юз101888100 0.2 10021146
12:00−2зюз111891100 0.9 9991301
15:00−5зсз81568100 2.9 9991636
18:00−7з357060 0.0 1001107
21:00−9юз5107930 0.0 1001192
8 марта, пн
пн800:00−8зюз614860 0.0 999446
03:00−7зюз7158516 0.0 998777
06:00−10зсз7157493 0.6 1000895
09:00−10сз6128470 0.6 1004889
12:00−7зсз6107759 0.0 10071037
15:00−7сз697638 0.0 10091024
18:00−9сз388572 0.0 1010238
21:00−12сз348984 0.0 101267